LFA321 VABB-VABB

Flight info

Callsign LFA321
Flight time 0h 11m
Altitude 1100
Route VABB VABB
Aircraft C172/L-SFG/C

Departure

Time 2026-04-28 14:37
Airport Chhatrapati Shivaji Maharaj International Airport (VABB)

Arrival

Time 2026-04-28 14:48
Airport Chhatrapati Shivaji Maharaj International Airport (VABB)
Time Latitude Longitude Altitude Speed Heading
2026-04-28 14:21 19.08600 72.85630 22 ft 0 kts 288°
2026-04-28 14:27 19.08600 72.85628 22 ft 1 kts 278°
2026-04-28 14:27 19.08579 72.85622 22 ft 7 kts 107°
2026-04-28 14:28 19.08612 72.85655 22 ft 8 kts 27°
2026-04-28 14:28 19.08659 72.85698 22 ft 11 kts 52°
2026-04-28 14:28 19.08702 72.85750 22 ft 0 kts 46°
2026-04-28 14:29 19.08703 72.85753 22 ft 1 kts 74°
2026-04-28 14:29 19.08702 72.85768 22 ft 6 kts 103°
2026-04-28 14:29 19.08699 72.85846 22 ft 15 kts 70°
2026-04-28 14:29 19.08736 72.85953 23 ft 3 kts 77°
2026-04-28 14:30 19.08737 72.85970 23 ft 6 kts 90°
2026-04-28 14:30 19.08738 72.86053 24 ft 16 kts 90°
2026-04-28 14:30 19.08739 72.86204 24 ft 25 kts 89°
2026-04-28 14:30 19.08744 72.86420 25 ft 31 kts 90°
2026-04-28 14:31 19.08744 72.86522 26 ft 10 kts 97°
2026-04-28 14:31 19.08743 72.86542 26 ft 0 kts 94°
2026-04-28 14:31 19.08743 72.86544 26 ft 3 kts 93°
2026-04-28 14:31 19.08736 72.86610 27 ft 11 kts 94°
2026-04-28 14:32 19.08752 72.86643 27 ft 0 kts 348°
2026-04-28 14:36 19.08783 72.86624 27 ft 15 kts 319°
2026-04-28 14:36 19.08859 72.86481 25 ft 30 kts 269°
2026-04-28 14:36 19.08861 72.86074 26 ft 80 kts 269°
2026-04-28 14:36 19.08848 72.85438 255 ft 85 kts 271°
2026-04-28 14:37 19.08827 72.84836 579 ft 81 kts 260°
2026-04-28 14:37 19.08699 72.84236 760 ft 91 kts 234°
2026-04-28 14:37 19.08104 72.84054 983 ft 96 kts 176°
2026-04-28 14:37 19.07446 72.84079 1222 ft 96 kts 176°
2026-04-28 14:38 19.06926 72.84465 1188 ft 111 kts 92°
2026-04-28 14:38 19.06974 72.85298 1191 ft 115 kts 85°
2026-04-28 14:38 19.07032 72.86159 1176 ft 117 kts 86°
2026-04-28 14:38 19.07080 72.86955 1226 ft 104 kts 87°
2026-04-28 14:39 19.07110 72.87693 1244 ft 98 kts 87°
2026-04-28 14:39 19.07159 72.88411 1229 ft 97 kts 86°
2026-04-28 14:39 19.07322 72.89066 1164 ft 91 kts 47°
2026-04-28 14:39 19.07912 72.89229 961 ft 94 kts 358°
2026-04-28 14:40 19.08513 72.89231 784 ft 83 kts
2026-04-28 14:40 19.08708 72.89204 674 ft 85 kts 336°
2026-04-28 14:40 19.08903 72.88335 304 ft 80 kts 270°
2026-04-28 14:40 19.08885 72.87761 111 ft 75 kts 268°
2026-04-28 14:41 19.08878 72.87170 54 ft 79 kts 270°
2026-04-28 14:41 19.08871 72.86671 27 ft 64 kts 268°
2026-04-28 14:41 19.08860 72.86098 197 ft 80 kts 270°
2026-04-28 14:41 19.08889 72.85491 427 ft 87 kts 267°
2026-04-28 14:42 19.08844 72.84879 713 ft 85 kts 263°
2026-04-28 14:42 19.08808 72.84252 989 ft 84 kts 263°
2026-04-28 14:42 19.08347 72.83985 1227 ft 87 kts 175°
2026-04-28 14:42 19.07727 72.84023 1222 ft 92 kts 179°
2026-04-28 14:43 19.07256 72.84402 1142 ft 98 kts 88°
2026-04-28 14:43 19.07303 72.85087 1227 ft 89 kts 95°
2026-04-28 14:43 19.07292 72.85765 1210 ft 94 kts 91°
2026-04-28 14:43 19.07285 72.86467 1190 ft 97 kts 89°
2026-04-28 14:44 19.07313 72.87173 1197 ft 94 kts 89°
2026-04-28 14:44 19.07261 72.87859 1192 ft 93 kts 92°
2026-04-28 14:44 19.07287 72.88521 1238 ft 91 kts 86°
2026-04-28 14:44 19.07327 72.89197 1216 ft 94 kts 87°
2026-04-28 14:45 19.07366 72.89889 1215 ft 94 kts 87°
2026-04-28 14:45 19.07414 72.90573 1192 ft 98 kts 82°
2026-04-28 14:45 19.07546 72.91268 1202 ft 95 kts 84°
2026-04-28 14:45 19.07682 72.91681 1146 ft 88 kts 45°
2026-04-28 14:46 19.08409 72.91836 895 ft 79 kts 359°
2026-04-28 14:46 19.08866 72.91591 774 ft 75 kts 296°
2026-04-28 14:46 19.08912 72.90974 797 ft 89 kts 272°
2026-04-28 14:46 19.08912 72.90430 763 ft 65 kts 270°
2026-04-28 14:47 19.08908 72.89954 643 ft 67 kts 270°
2026-04-28 14:47 19.08906 72.89452 520 ft 70 kts 269°
2026-04-28 14:47 19.08901 72.88954 416 ft 66 kts 270°
2026-04-28 14:47 19.08901 72.88471 309 ft 65 kts 271°
2026-04-28 14:48 19.08891 72.87987 187 ft 66 kts 270°
2026-04-28 14:48 19.08885 72.87506 71 ft 65 kts 268°
2026-04-28 14:48 19.08875 72.87101 29 ft 42 kts 270°
2026-04-28 14:48 19.08872 72.86817 30 ft 31 kts 269°
2026-04-28 14:49 19.08868 72.86599 27 ft 25 kts 268°
2026-04-28 14:49 19.08852 72.86533 25 ft 8 kts 129°
2026-04-28 14:49 19.08785 72.86620 27 ft 22 kts 135°
2026-04-28 14:49 19.08714 72.86693 27 ft 0 kts 133°
2026-04-28 14:50 19.08711 72.86674 27 ft 11 kts 302°
2026-04-28 14:51 19.08729 72.86592 27 ft 11 kts 288°
2026-04-28 14:51 19.08743 72.86493 26 ft 16 kts 269°
2026-04-28 14:51 19.08740 72.86347 25 ft 23 kts 268°
2026-04-28 14:51 19.08736 72.86153 24 ft 29 kts 269°
2026-04-28 14:52 19.08728 72.85922 23 ft 31 kts 257°
2026-04-28 14:52 19.08679 72.85726 22 ft 28 kts 239°
2026-04-28 14:52 19.08582 72.85639 22 ft 3 kts 228°
2026-04-28 14:52 19.08577 72.85613 22 ft 0 kts 268°